Regional Weather Roundup
Issued by NWS

Home | Current Version | Previous Version | Graphics & Text | Print | Product List | Glossary On
Versions: 1 2 3 4 5 6 7 8 9 10 11 12 13 14 15 16 17 18 19 20 21 22 23 24 25 26 27 28 29 30 31 32 33 34 35 36 37 38 39 40 41 42 43 44 45 46 47 48 49 50
000
ASUS45 KCYS 290210
RWRWY

WYOMING REGIONAL WEATHER ROUNDUP
NATIONAL WEATHER SERVICE CHEYENNE WY
800 PM MDT TUE MAR 28 2017

NOTE:  "FAIR" INDICATES FEW OR NO CLOUDS BELOW 12,000 FEET
WITH NO SIGNIFICANT WEATHER AND/OR OBSTRUCTIONS TO VISIBILITY.

WYZ001-290300-
YELLOWSTONE NATIONAL PARK

CITY           SKY/WX    TMP DP  RH WIND       PRES   REMARKS
LK YELLOWSTONE   N/A     31  14  49 VRB3      30.18R
W YELLOWSTONE  NOT AVBL

$$
WYZ002>013-054>058-071-098>099-290300-
NORTHERN WYOMING

CITY           SKY/WX    TMP DP  RH WIND       PRES   REMARKS
JACKSON        CLEAR     36  21  55 NW6       30.15R WCI  31
CODY           FAIR      42  26  53 CALM      30.11R
GREYBULL       FAIR      49  30  48 S7        30.08R
WORLAND        FAIR      43  38  82 SE10      30.09R
SHERIDAN       FAIR      39  34  82 S3        30.12S
BUFFALO        CLOUDY    41  33  73 NW7       30.14R
GILLETTE       CLOUDY    43  37  79 NW9       30.12R
HULETT         CLOUDY    43  41  93 CALM      30.12R
NEWCASTLE      CLOUDY    41  41 100 SE6       30.12R

$$
WYZ014>020-022>026-101>103-290300-
CENTRAL WYOMING

CITY           SKY/WX    TMP DP  RH WIND       PRES   REMARKS
BIG PINEY      FAIR      34  25  69 N12       30.13R WCI  25
PINEDALE       FAIR      36  21  55 NW12      30.13R WCI  27
DUBOIS         FAIR      36  21  55 NW8       30.11R WCI  29
LANDER         FAIR      39  32  76 SW6       30.10R WCI  35
RIVERTON       FAIR      40  30  67 E6        30.12R
CASPER         CLOUDY    40  35  83 N12       30.13R WCI  33
DOUGLAS        CLOUDY    41  38  89 N7        30.11R

$$
WYZ021-027>030-104>119-290300-
SOUTHERN WYOMING

CITY           SKY/WX    TMP DP  RH WIND       PRES   REMARKS
EVANSTON       FAIR      36  23  59 N10       30.18R WCI  28
KEMMERER         N/A     34  25  69 W16       30.16R WCI  23
FORT BRIDGER   FAIR      37  26  63 NW14      30.18R WCI  28
ROCK SPRINGS   CLOUDY    37  33  85 NE6       30.14R WCI  32
DIXON            N/A     39  30  71 N15G21    30.11R WCI  30
RAWLINS        MOCLDY    36  29  75 NE6       30.13R WCI  31
SARATOGA       CLOUDY    36  36 100 NW12G18   30.11R WCI  27
LARAMIE        LGT SNOW  32  32 100 N12       30.07R FOG     WCI  23
CHEYENNE       MIX PCPN  35  33  92 N16       30.04R WCI  25
TORRINGTON     LGT RAIN  41  39  93 NE12      30.08R
PINE BLUFFS    CLOUDY    37  37 100 NE8       30.04R WCI  31

$$



USA.gov is the U.S. government's official web portal to all federal, state and local government web resources and services.